Location: Squirrel Cove
(50.1074°N, 124.9139°W)
Time: 13:51:03
(UTC-07:00)

PCSat - Pass Details

Date: 20 May 2022
Orbit: 784 x 795 km, 67.1° (Epoch: 26 June)

Event Time Altitude Azimuth Distance (km) Brightness Sun altitude
Rises 03:29:54 0° 324° (NW) 3,306 13.1 -13.9°
Reaches altitude 10° 03:32:22 10° 329° (NNW) 2,374 12.4 -13.7°
Maximum altitude 03:37:45 59° 48° (NE) 921 10.3 -13.2°
Drops below altitude 10° 03:43:06 10° 128° (SE) 2,360 12.0 -12.7°
Sets 03:45:33 0° 132° (SE) 3,285 12.7 -12.5°
